Location: Bernay
(48.6766°N, 2.9386°E)
Time: 20:56:37
(UTC+00:00)

Cosmos 968 Rocket - Pass Details

Date: 12 January 2026
Orbit: 737 x 764 km, 74.0° (Epoch: 14 February)

Event Time Altitude Azimuth Distance (km) Brightness Sun altitude
Rises 17:00:16 0° 342° (NNW) 3,218 6.7 -7.3°
Reaches altitude 10° 17:02:56 10° 353° (N) 2,284 5.8 -7.7°
Maximum altitude 17:07:28 30° 55° (NE) 1,332 4.2 -8.3°
Drops below altitude 10° 17:11:56 10° 116° (ESE) 2,256 5.5 -9.0°
Sets 17:14:33 0° 127° (SE) 3,171 6.4 -9.4°
